Time,TemperatureF,DewpointF,PressureIn,WindDirection,WindDirectionDegrees,WindSpeedMPH,WindSpeedGustMPH,Humidity,HourlyPrecipIn,Conditions,Clouds,dailyrainin,SoftwareType,DateUTC
2013-06-25 00:02:00,72.5,62.6,29.91,South,179,0.0,0.0,71,-99.99,,,-99.99,perl,2013-06-25 04:02:00,
2013-06-25 00:03:00,72.5,62.6,29.91,South,179,0.0,0.0,71,-99.99,,,-99.99,perl,2013-06-25 04:03:00,
2013-06-25 00:05:00,72.3,60.8,29.91,South,179,0.0,0.0,68,-99.99,,,-99.99,perl,2013-06-25 04:05:00,
2013-06-25 00:08:00,72.3,60.8,29.91,South,180,0.0,0.0,68,-99.99,,,-99.99,perl,2013-06-25 04:08:00,
2013-06-25 00:10:00,72.1,60.8,29.91,South,179,0.0,0.0,68,-99.99,,,-99.99,perl,2013-06-25 04:10:00,
2013-06-25 00:15:00,72.0,60.8,29.91,South,179,0.0,0.0,68,-99.99,,,-99.99,perl,2013-06-25 04:15:00,
2013-06-25 00:20:00,71.8,60.8,29.91,South,180,0.0,0.0,68,-99.99,,,-99.99,perl,2013-06-25 04:20:00,
2013-06-25 00:26:00,71.6,60.8,29.91,South,179,0.0,0.0,69,-99.99,,,-99.99,perl,2013-06-25 04:26:00,
2013-06-25 00:31:00,71.4,60.8,29.91,South,179,0.0,0.0,70,-99.99,,,-99.99,perl,2013-06-25 04:31:00,
2013-06-25 00:36:00,71.2,60.8,29.91,South,179,0.0,0.0,70,-99.99,,,-99.99,perl,2013-06-25 04:36:00,
2013-06-25 00:41:00,71.1,60.8,29.91,South,179,0.0,0.0,70,-99.99,,,-99.99,perl,2013-06-25 04:41:00,
2013-06-25 00:46:00,71.1,62.6,29.91,South,179,0.0,0.0,75,-99.99,,,-99.99,perl,2013-06-25 04:46:00,
2013-06-25 00:51:00,70.9,62.6,29.91,South,179,0.0,0.0,75,-99.99,,,-99.99,perl,2013-06-25 04:51:00,
2013-06-25 00:56:00,70.7,62.6,29.91,South,184,0.0,0.0,76,-99.99,,,-99.99,perl,2013-06-25 04:56:00,
2013-06-25 01:01:00,70.7,64.4,29.91,SSW,198,0.0,0.0,81,-99.99,,,-99.99,perl,2013-06-25 05:01:00,
2013-06-25 01:06:00,70.7,64.4,29.91,SSW,198,0.0,0.0,81,-99.99,,,-99.99,perl,2013-06-25 05:06:00,
2013-06-25 01:11:00,70.7,64.4,29.91,SSW,192,0.0,0.0,81,-99.99,,,-99.99,perl,2013-06-25 05:11:00,
2013-06-25 01:16:00,70.7,64.4,29.91,SSW,192,0.0,0.0,81,-99.99,,,-99.99,perl,2013-06-25 05:16:00,
2013-06-25 01:21:00,70.7,64.4,29.91,SSW,193,0.0,0.0,81,-99.99,,,-99.99,perl,2013-06-25 05:21:00,
2013-06-25 01:26:00,70.7,64.4,29.91,WSW,256,0.0,0.0,81,-99.99,,,-99.99,perl,2013-06-25 05:26:00,
2013-06-25 01:31:00,70.7,64.4,29.91,WSW,257,0.0,0.0,81,-99.99,,,-99.99,perl,2013-06-25 05:31:00,
2013-06-25 01:36:00,70.7,64.4,29.91,WSW,256,0.0,0.0,81,-99.99,,,-99.99,perl,2013-06-25 05:36:00,
2013-06-25 01:41:00,70.7,64.4,29.91,WSW,257,0.0,0.0,81,-99.99,,,-99.99,perl,2013-06-25 05:41:00,
2013-06-25 01:46:00,70.7,64.4,29.91,WSW,257,0.0,0.0,81,-99.99,,,-99.99,perl,2013-06-25 05:46:00,
2013-06-25 01:51:00,70.5,62.6,29.91,WSW,256,0.0,0.0,77,-99.99,,,-99.99,perl,2013-06-25 05:51:00,
2013-06-25 01:56:00,70.5,62.6,29.91,WSW,256,0.0,0.0,77,-99.99,,,-99.99,perl,2013-06-25 05:56:00,
2013-06-25 02:01:00,70.3,62.6,29.91,WSW,257,0.0,0.0,77,-99.99,,,-99.99,perl,2013-06-25 06:01:00,
2013-06-25 02:06:00,70.3,62.6,29.91,WSW,256,0.0,0.0,77,-99.99,,,-99.99,perl,2013-06-25 06:06:00,
2013-06-25 02:11:00,70.3,62.6,29.91,WSW,256,0.0,0.0,77,-99.99,,,-99.99,perl,2013-06-25 06:11:00,
2013-06-25 02:17:00,70.2,62.6,29.91,WSW,257,0.0,0.0,77,-99.99,,,-99.99,perl,2013-06-25 06:17:00,
2013-06-25 02:22:00,70.2,64.4,29.91,WSW,256,0.0,0.0,82,-99.99,,,-99.99,perl,2013-06-25 06:22:00,
2013-06-25 02:27:00,70.2,64.4,29.91,WSW,257,0.0,0.0,82,-99.99,,,-99.99,perl,2013-06-25 06:27:00,
2013-06-25 02:32:00,70.2,64.4,29.91,WSW,256,0.0,0.0,82,-99.99,,,-99.99,perl,2013-06-25 06:32:00,
2013-06-25 02:37:00,70.0,64.4,29.91,WSW,257,0.0,0.0,83,-99.99,,,-99.99,perl,2013-06-25 06:37:00,
2013-06-25 02:42:00,70.2,64.4,29.91,WSW,256,0.0,0.0,82,-99.99,,,-99.99,perl,2013-06-25 06:42:00,
2013-06-25 02:47:00,70.2,64.4,29.91,WSW,257,0.0,0.0,82,-99.99,,,-99.99,perl,2013-06-25 06:47:00,
2013-06-25 02:52:00,70.2,64.4,29.91,WNW,286,0.0,0.0,82,-99.99,,,-99.99,perl,2013-06-25 06:52:00,
2013-06-25 02:57:00,70.2,64.4,29.91,WNW,286,0.0,0.0,82,-99.99,,,-99.99,perl,2013-06-25 06:57:00,
2013-06-25 03:02:00,70.2,64.4,29.88,WNW,286,0.0,0.0,82,-99.99,,,-99.99,perl,2013-06-25 07:02:00,
2013-06-25 03:07:00,70.2,64.4,29.88,WNW,286,0.0,0.0,82,-99.99,,,-99.99,perl,2013-06-25 07:07:00,
2013-06-25 03:12:00,70.2,64.4,29.88,WNW,286,0.0,0.0,82,-99.99,,,-99.99,perl,2013-06-25 07:12:00,
2013-06-25 03:17:00,70.2,64.4,29.88,NW,320,0.0,0.0,82,-99.99,,,-99.99,perl,2013-06-25 07:17:00,
2013-06-25 03:22:00,70.2,64.4,29.88,WNW,296,0.0,0.0,82,-99.99,,,-99.99,perl,2013-06-25 07:22:00,
2013-06-25 03:27:00,70.2,64.4,29.88,WNW,291,0.0,0.0,82,-99.99,,,-99.99,perl,2013-06-25 07:27:00,
2013-06-25 03:32:00,70.2,64.4,29.88,WNW,302,0.0,0.0,82,-99.99,,,-99.99,perl,2013-06-25 07:32:00,
2013-06-25 03:37:00,70.2,64.4,29.88,WNW,302,0.0,0.0,82,-99.99,,,-99.99,perl,2013-06-25 07:37:00,
2013-06-25 03:42:00,70.2,64.4,29.88,WNW,303,0.0,0.0,82,-99.99,,,-99.99,perl,2013-06-25 07:42:00,
2013-06-25 03:47:00,70.2,64.4,29.88,West,281,0.0,0.0,82,-99.99,,,-99.99,perl,2013-06-25 07:47:00,
2013-06-25 03:52:00,70.2,64.4,29.88,WNW,293,0.0,0.0,82,-99.99,,,-99.99,perl,2013-06-25 07:52:00,
2013-06-25 03:57:00,70.2,64.4,29.88,WNW,292,0.0,0.0,82,-99.99,,,-99.99,perl,2013-06-25 07:57:00,
2013-06-25 04:02:00,70.2,64.4,29.88,WNW,292,0.0,0.0,82,-99.99,,,-99.99,perl,2013-06-25 08:02:00,
2013-06-25 04:08:00,70.0,66.2,29.88,WNW,292,0.0,0.0,88,-99.99,,,-99.99,perl,2013-06-25 08:08:00,
2013-06-25 04:14:00,70.0,66.2,29.88,WNW,292,0.0,0.0,88,-99.99,,,-99.99,perl,2013-06-25 08:14:00,
2013-06-25 04:19:00,70.0,66.2,29.88,WNW,286,0.0,0.0,88,-99.99,,,-99.99,perl,2013-06-25 08:19:00,
2013-06-25 04:24:00,70.0,66.2,29.88,WNW,284,0.0,0.0,88,-99.99,,,-99.99,perl,2013-06-25 08:24:00,
2013-06-25 04:29:00,70.0,66.2,29.88,WNW,284,0.0,0.0,88,-99.99,,,-99.99,perl,2013-06-25 08:29:00,
2013-06-25 04:34:00,70.0,66.2,29.88,WNW,288,0.0,0.0,88,-99.99,,,-99.99,perl,2013-06-25 08:34:00,
2013-06-25 04:39:00,70.0,66.2,29.88,West,277,0.0,0.0,88,-99.99,,,-99.99,perl,2013-06-25 08:39:00,
2013-06-25 04:45:00,70.2,66.2,29.88,NW,304,0.0,0.0,87,-99.99,,,-99.99,perl,2013-06-25 08:45:00,
2013-06-25 04:50:00,70.2,66.2,29.88,WNW,298,0.0,0.0,87,-99.99,,,-99.99,perl,2013-06-25 08:50:00,
2013-06-25 04:55:00,70.2,66.2,29.88,WNW,298,0.0,0.0,87,-99.99,,,-99.99,perl,2013-06-25 08:55:00,
2013-06-25 05:00:00,70.0,66.2,29.88,WNW,298,0.0,0.0,88,-99.99,,,-99.99,perl,2013-06-25 09:00:00,
2013-06-25 05:05:00,70.0,66.2,29.88,West,265,0.0,0.0,88,-99.99,,,-99.99,perl,2013-06-25 09:05:00,
2013-06-25 05:10:00,70.0,66.2,29.88,West,264,0.0,0.0,88,-99.99,,,-99.99,perl,2013-06-25 09:10:00,
2013-06-25 05:15:00,70.0,66.2,29.88,West,265,0.0,0.0,88,-99.99,,,-99.99,perl,2013-06-25 09:15:00,
2013-06-25 05:20:00,69.8,66.2,29.88,West,264,0.0,0.0,88,-99.99,,,-99.99,perl,2013-06-25 09:20:00,
2013-06-25 05:26:00,69.8,66.2,29.88,West,267,0.0,0.0,88,-99.99,,,-99.99,perl,2013-06-25 09:26:00,
2013-06-25 05:31:00,69.8,66.2,29.88,West,267,0.0,0.0,88,-99.99,,,-99.99,perl,2013-06-25 09:31:00,
2013-06-25 05:36:00,69.6,66.2,29.88,West,267,0.0,0.0,89,-99.99,,,-99.99,perl,2013-06-25 09:36:00,
2013-06-25 05:41:00,69.6,66.2,29.88,West,280,0.0,0.0,89,-99.99,,,-99.99,perl,2013-06-25 09:41:00,
2013-06-25 05:46:00,69.6,66.2,29.88,West,270,0.0,0.0,89,-99.99,,,-99.99,perl,2013-06-25 09:46:00,
2013-06-25 05:51:00,69.6,66.2,29.88,West,280,0.0,0.0,89,-99.99,,,-99.99,perl,2013-06-25 09:51:00,
2013-06-25 05:56:00,69.8,66.2,29.88,WNW,292,0.0,0.0,88,-99.99,,,-99.99,perl,2013-06-25 09:56:00,
2013-06-25 06:01:00,69.8,66.2,29.88,WNW,292,0.0,0.0,88,-99.99,,,-99.99,perl,2013-06-25 10:01:00,
2013-06-25 06:06:00,69.8,66.2,29.88,WNW,292,0.0,0.0,88,-99.99,,,-99.99,perl,2013-06-25 10:06:00,
2013-06-25 06:11:00,69.8,66.2,29.88,WNW,292,0.0,0.0,88,-99.99,,,-99.99,perl,2013-06-25 10:11:00,
2013-06-25 06:16:00,69.8,66.2,29.88,WNW,292,0.0,0.0,88,-99.99,,,-99.99,perl,2013-06-25 10:16:00,
2013-06-25 06:21:00,69.6,66.2,29.88,WNW,288,0.0,0.0,89,-99.99,,,-99.99,perl,2013-06-25 10:21:00,
2013-06-25 06:26:00,69.6,66.2,29.88,WNW,288,0.0,0.0,89,-99.99,,,-99.99,perl,2013-06-25 10:26:00,
2013-06-25 06:31:00,69.6,66.2,29.88,WNW,289,0.0,0.0,89,-99.99,,,-99.99,perl,2013-06-25 10:31:00,
2013-06-25 06:36:00,69.6,66.2,29.88,WNW,289,0.0,0.0,89,-99.99,,,-99.99,perl,2013-06-25 10:36:00,
2013-06-25 06:42:00,69.6,66.2,29.88,WNW,287,0.0,0.0,89,-99.99,,,-99.99,perl,2013-06-25 10:42:00,
2013-06-25 06:47:00,69.6,66.2,29.88,WNW,284,0.0,0.0,89,-99.99,,,-99.99,perl,2013-06-25 10:47:00,
2013-06-25 06:52:00,69.8,66.2,29.88,WNW,284,0.0,0.0,88,-99.99,,,-99.99,perl,2013-06-25 10:52:00,
2013-06-25 06:57:00,70.0,66.2,29.88,NNW,332,0.0,0.0,88,-99.99,,,-99.99,perl,2013-06-25 10:57:00,
2013-06-25 07:02:00,70.2,66.2,29.88,South,190,0.0,0.0,87,-99.99,,,-99.99,perl,2013-06-25 11:02:00,
2013-06-25 07:08:00,70.3,66.2,29.88,SW,216,0.0,0.0,87,-99.99,,,-99.99,perl,2013-06-25 11:08:00,
2013-06-25 07:13:00,70.7,68.0,29.88,WNW,290,0.0,0.0,91,-99.99,,,-99.99,perl,2013-06-25 11:13:00,
2013-06-25 07:18:00,71.1,68.0,29.88,WSW,245,0.0,0.0,90,-99.99,,,-99.99,perl,2013-06-25 11:18:00,
2013-06-25 07:23:00,71.2,68.0,29.88,WSW,245,0.0,0.0,90,-99.99,,,-99.99,perl,2013-06-25 11:23:00,
2013-06-25 07:29:00,71.6,68.0,29.88,South,181,0.0,0.0,89,-99.99,,,-99.99,perl,2013-06-25 11:29:00,
2013-06-25 07:34:00,71.8,68.0,29.88,WSW,248,0.0,0.0,88,-99.99,,,-99.99,perl,2013-06-25 11:34:00,
2013-06-25 07:40:00,72.1,66.2,29.88,West,274,0.4,4.5,82,-99.99,,,-99.99,perl,2013-06-25 11:40:00,
2013-06-25 07:45:00,72.3,66.2,29.88,West,276,0.0,0.0,82,-99.99,,,-99.99,perl,2013-06-25 11:45:00,
2013-06-25 07:50:00,72.5,68.0,29.88,West,265,0.0,0.0,86,-99.99,,,-99.99,perl,2013-06-25 11:50:00,
2013-06-25 07:55:00,72.7,68.0,29.88,West,269,0.7,4.9,85,-99.99,,,-99.99,perl,2013-06-25 11:55:00,
2013-06-25 08:00:00,72.7,68.0,29.88,WSW,253,0.0,0.0,85,-99.99,,,-99.99,perl,2013-06-25 12:00:00,
2013-06-25 08:05:00,72.7,68.0,29.88,West,273,2.2,2.7,85,-99.99,,,-99.99,perl,2013-06-25 12:05:00,
2013-06-25 08:10:00,72.7,68.0,29.88,WNW,294,0.0,0.0,85,-99.99,,,-99.99,perl,2013-06-25 12:10:00,
2013-06-25 08:15:00,72.7,68.0,29.88,WSW,244,0.0,0.0,85,-99.99,,,-99.99,perl,2013-06-25 12:15:00,
2013-06-25 08:20:00,72.7,68.0,29.88,West,267,0.0,0.0,85,-99.99,,,-99.99,perl,2013-06-25 12:20:00,
2013-06-25 08:25:00,72.9,68.0,29.88,West,280,0.0,0.0,85,-99.99,,,-99.99,perl,2013-06-25 12:25:00,
2013-06-25 08:30:00,73.0,68.0,29.88,WSW,254,1.7,0.0,85,-99.99,,,-99.99,perl,2013-06-25 12:30:00,
2013-06-25 08:35:00,73.2,68.0,29.88,WSW,247,0.0,0.0,84,-99.99,,,-99.99,perl,2013-06-25 12:35:00,
2013-06-25 08:40:00,73.2,68.0,29.88,WSW,248,0.0,0.0,84,-99.99,,,-99.99,perl,2013-06-25 12:40:00,
2013-06-25 08:45:00,73.4,68.0,29.88,WNW,291,2.2,2.7,83,-99.99,,,-99.99,perl,2013-06-25 12:45:00,
2013-06-25 08:50:00,73.4,68.0,29.88,WSW,239,0.0,0.0,83,-99.99,,,-99.99,perl,2013-06-25 12:50:00,
2013-06-25 08:56:00,73.4,68.0,29.88,WNW,282,0.0,0.0,83,-99.99,,,-99.99,perl,2013-06-25 12:56:00,
2013-06-25 09:01:00,73.6,68.0,29.88,NW,304,0.0,0.0,83,-99.99,,,-99.99,perl,2013-06-25 13:01:00,
2013-06-25 09:06:00,73.6,68.0,29.88,WSW,238,3.0,3.6,83,-99.99,,,-99.99,perl,2013-06-25 13:06:00,
2013-06-25 09:11:00,73.8,68.0,29.88,West,278,1.8,0.0,82,-99.99,,,-99.99,perl,2013-06-25 13:11:00,
2013-06-25 09:16:00,73.9,68.0,29.88,West,262,0.0,0.0,82,-99.99,,,-99.99,perl,2013-06-25 13:16:00,
2013-06-25 09:21:00,74.1,66.2,29.88,WNW,290,0.0,2.2,77,-99.99,,,-99.99,perl,2013-06-25 13:21:00,
2013-06-25 09:26:00,74.3,68.0,29.88,WNW,290,2.0,2.7,81,-99.99,,,-99.99,perl,2013-06-25 13:26:00,
2013-06-25 09:31:00,74.5,68.0,29.88,West,273,2.7,3.6,80,-99.99,,,-99.99,perl,2013-06-25 13:31:00,
2013-06-25 09:36:00,74.8,68.0,29.88,South,183,0.6,3.6,80,-99.99,,,-99.99,perl,2013-06-25 13:36:00,
2013-06-25 09:41:00,75.0,68.0,29.88,WNW,289,3.6,3.6,79,-99.99,,,-99.99,perl,2013-06-25 13:41:00,
2013-06-25 09:46:00,75.2,68.0,29.88,West,265,0.0,0.0,78,-99.99,,,-99.99,perl,2013-06-25 13:46:00,
2013-06-25 09:51:00,75.4,68.0,29.88,WSW,248,2.3,0.0,78,-99.99,,,-99.99,perl,2013-06-25 13:51:00,
2013-06-25 09:56:00,75.4,68.0,29.88,WSW,255,2.3,4.0,78,-99.99,,,-99.99,perl,2013-06-25 13:56:00,
2013-06-25 10:01:00,75.6,68.0,29.88,West,270,0.0,0.0,77,-99.99,,,-99.99,perl,2013-06-25 14:01:00,
2013-06-25 10:06:00,75.6,68.0,29.88,NNW,337,0.0,0.0,77,-99.99,,,-99.99,perl,2013-06-25 14:06:00,
2013-06-25 10:11:00,75.6,68.0,29.88,South,176,0.0,3.1,77,-99.99,,,-99.99,perl,2013-06-25 14:11:00,
2013-06-25 10:16:00,75.2,68.0,29.88,WSW,246,5.4,8.3,78,-99.99,,,-99.99,perl,2013-06-25 14:16:00,
2013-06-25 10:21:00,73.9,62.6,29.88,West,277,8.8,12.8,68,-99.99,,,-99.99,perl,2013-06-25 14:21:00,
2013-06-25 10:26:00,72.5,64.4,29.88,West,273,5.6,5.8,76,-99.99,,,-99.99,perl,2013-06-25 14:26:00,
2013-06-25 10:31:00,72.0,64.4,29.88,West,261,0.6,3.6,77,-99.99,,,-99.99,perl,2013-06-25 14:31:00,
2013-06-25 10:36:00,71.6,66.2,29.88,WNW,282,3.8,4.0,84,-99.99,,,-99.99,perl,2013-06-25 14:36:00,
2013-06-25 10:41:00,71.6,66.2,29.88,WNW,284,1.6,8.7,84,-99.99,,,-99.99,perl,2013-06-25 14:41:00,
2013-06-25 10:47:00,72.0,66.2,29.88,West,265,3.6,4.0,82,-99.99,,,-99.99,perl,2013-06-25 14:47:00,
2013-06-25 10:52:00,72.3,66.2,29.88,West,273,4.7,6.3,82,-99.99,,,-99.99,perl,2013-06-25 14:52:00,
2013-06-25 10:57:00,72.7,68.0,29.88,SW,234,1.0,4.9,85,-99.99,,,-99.99,perl,2013-06-25 14:57:00,
2013-06-25 11:02:00,73.0,68.0,29.88,South,175,0.6,4.0,85,-99.99,,,-99.99,perl,2013-06-25 15:02:00,
2013-06-25 11:07:00,73.0,68.0,29.88,West,274,3.6,3.6,85,-99.99,,,-99.99,perl,2013-06-25 15:07:00,
2013-06-25 11:12:00,73.4,68.0,29.88,West,265,0.0,0.0,83,-99.99,,,-99.99,perl,2013-06-25 15:12:00,
2013-06-25 11:17:00,73.8,68.0,29.88,West,269,3.4,6.3,82,-99.99,,,-99.99,perl,2013-06-25 15:17:00,
2013-06-25 11:22:00,73.9,66.2,29.88,WNW,300,4.7,8.7,77,-99.99,,,-99.99,perl,2013-06-25 15:22:00,
2013-06-25 11:27:00,74.1,66.2,29.88,NW,308,3.5,7.2,77,-99.99,,,-99.99,perl,2013-06-25 15:27:00,
2013-06-25 11:32:00,74.5,68.0,29.85,WNW,284,4.4,4.9,80,-99.99,,,-99.99,perl,2013-06-25 15:32:00,
2013-06-25 11:37:00,74.7,68.0,29.85,WSW,252,4.5,4.9,80,-99.99,,,-99.99,perl,2013-06-25 15:37:00,
2013-06-25 11:42:00,75.4,66.2,29.85,West,274,5.4,6.3,73,-99.99,,,-99.99,perl,2013-06-25 15:42:00,
2013-06-25 11:47:00,75.9,64.4,29.85,WNW,284,6.2,8.3,68,-99.99,,,-99.99,perl,2013-06-25 15:47:00,
2013-06-25 11:52:00,76.3,66.2,29.85,West,278,4.6,8.1,71,-99.99,,,-99.99,perl,2013-06-25 15:52:00,
2013-06-25 11:57:00,76.8,66.2,29.85,SW,227,4.5,4.9,70,-99.99,,,-99.99,perl,2013-06-25 15:57:00,
2013-06-25 12:02:00,77.5,66.2,29.85,NW,306,5.1,6.3,69,-99.99,,,-99.99,perl,2013-06-25 16:02:00,
2013-06-25 12:07:00,78.1,66.2,29.85,West,274,3.6,10.1,67,-99.99,,,-99.99,perl,2013-06-25 16:07:00,
2013-06-25 12:12:00,78.4,66.2,29.85,WSW,254,3.4,4.0,67,-99.99,,,-99.99,perl,2013-06-25 16:12:00,
2013-06-25 12:17:00,78.1,64.4,29.85,WNW,286,8.1,10.5,63,-99.99,,,-99.99,perl,2013-06-25 16:17:00,
2013-06-25 12:22:00,77.9,64.4,29.85,WNW,303,5.0,10.1,63,-99.99,,,-99.99,perl,2013-06-25 16:22:00,
2013-06-25 12:27:00,78.1,66.2,29.85,NNW,327,4.7,7.6,67,-99.99,,,-99.99,perl,2013-06-25 16:27:00,
2013-06-25 12:32:00,79.0,64.4,29.85,West,263,5.1,6.3,61,-99.99,,,-99.99,perl,2013-06-25 16:32:00,
2013-06-25 12:38:00,79.5,62.6,29.85,West,275,6.7,8.7,57,-99.99,,,-99.99,perl,2013-06-25 16:38:00,
2013-06-25 12:43:00,79.9,66.2,29.85,NW,323,3.0,8.3,63,-99.99,,,-99.99,perl,2013-06-25 16:43:00,
2013-06-25 12:48:00,80.2,66.2,29.85,WSW,247,4.7,7.6,63,-99.99,,,-99.99,perl,2013-06-25 16:48:00,
2013-06-25 12:53:00,80.4,64.4,29.85,West,281,5.1,5.8,59,-99.99,,,-99.99,perl,2013-06-25 16:53:00,
2013-06-25 12:58:00,80.2,62.6,29.85,West,273,6.5,8.3,55,-99.99,,,-99.99,perl,2013-06-25 16:58:00,
2013-06-25 13:03:00,80.4,64.4,29.85,WNW,286,3.1,4.0,59,-99.99,,,-99.99,perl,2013-06-25 17:03:00,
2013-06-25 13:08:00,80.4,60.8,29.85,West,277,4.4,9.6,52,-99.99,,,-99.99,perl,2013-06-25 17:08:00,
2013-06-25 13:13:00,79.9,60.8,29.85,NW,312,3.8,6.3,52,-99.99,,,-99.99,perl,2013-06-25 17:13:00,
2013-06-25 13:18:00,79.3,60.8,29.85,West,281,5.8,10.1,54,-99.99,,,-99.99,perl,2013-06-25 17:18:00,
2013-06-25 13:23:00,78.8,60.8,29.85,WNW,291,6.4,6.4,54,-99.99,,,-99.99,perl,2013-06-25 17:23:00,
2013-06-25 13:28:00,78.3,62.6,29.85,NW,322,3.8,4.0,59,-99.99,,,-99.99,perl,2013-06-25 17:28:00,
2013-06-25 13:33:00,77.4,64.4,29.85,West,276,5.4,11.0,64,-99.99,,,-99.99,perl,2013-06-25 17:33:00,
2013-06-25 13:38:00,76.6,66.2,29.85,WSW,251,3.0,3.0,71,-99.99,,,-99.99,perl,2013-06-25 17:38:00,
2013-06-25 13:44:00,75.7,64.4,29.85,West,279,0.0,0.0,68,-99.99,,,-99.99,perl,2013-06-25 17:44:00,
2013-06-25 13:49:00,75.6,66.2,29.85,West,272,5.8,5.8,73,-99.99,,,-99.99,perl,2013-06-25 17:49:00,
2013-06-25 13:54:00,75.7,68.0,29.85,West,271,2.2,11.0,77,-99.99,,,-99.99,perl,2013-06-25 17:54:00,
2013-06-25 14:00:00,76.3,66.2,29.85,West,269,6.3,6.3,71,-99.99,,,-99.99,perl,2013-06-25 18:00:00,
2013-06-25 14:05:00,76.8,66.2,29.85,WSW,253,4.7,5.8,70,-99.99,,,-99.99,perl,2013-06-25 18:05:00,
2013-06-25 14:10:00,77.4,66.2,29.85,West,267,2.7,6.3,69,-99.99,,,-99.99,perl,2013-06-25 18:10:00,
2013-06-25 14:15:00,78.1,68.0,29.82,WSW,240,3.1,7.6,71,-99.99,,,-99.99,perl,2013-06-25 18:15:00,
2013-06-25 14:20:00,79.0,66.2,29.82,West,279,4.7,4.7,65,-99.99,,,-99.99,perl,2013-06-25 18:20:00,
2013-06-25 14:25:00,79.7,68.0,29.82,ESE,110,0.0,0.0,68,-99.99,,,-99.99,perl,2013-06-25 18:25:00,
2013-06-25 14:30:00,80.4,66.2,29.82,WNW,291,5.7,6.3,62,-99.99,,,-99.99,perl,2013-06-25 18:30:00,
2013-06-25 14:35:00,81.0,66.2,29.82,WNW,291,3.9,4.9,61,-99.99,,,-99.99,perl,2013-06-25 18:35:00,
2013-06-25 14:40:00,81.1,64.4,29.82,West,267,5.4,9.2,57,-99.99,,,-99.99,perl,2013-06-25 18:40:00,
2013-06-25 14:45:00,81.3,64.4,29.82,WNW,282,3.5,6.3,57,-99.99,,,-99.99,perl,2013-06-25 18:45:00,
2013-06-25 14:51:00,81.1,64.4,29.82,NW,308,4.1,7.6,57,-99.99,,,-99.99,perl,2013-06-25 18:51:00,
2013-06-25 14:56:00,80.8,66.2,29.82,West,279,3.0,3.1,61,-99.99,,,-99.99,perl,2013-06-25 18:56:00,
2013-06-25 15:01:00,80.8,66.2,29.82,WNW,283,1.0,8.7,61,-99.99,,,-99.99,perl,2013-06-25 19:01:00,
2013-06-25 15:06:00,80.6,66.2,29.82,West,279,3.0,3.6,62,-99.99,,,-99.99,perl,2013-06-25 19:06:00,
2013-06-25 15:11:00,80.4,66.2,29.82,West,276,3.8,5.8,62,-99.99,,,-99.99,perl,2013-06-25 19:11:00,
2013-06-25 15:16:00,79.9,66.2,29.82,West,279,5.3,5.4,63,-99.99,,,-99.99,perl,2013-06-25 19:16:00,
2013-06-25 15:21:00,79.7,66.2,29.82,WNW,300,2.9,4.0,64,-99.99,,,-99.99,perl,2013-06-25 19:21:00,
2013-06-25 15:26:00,79.7,68.0,29.82,West,281,3.0,3.1,68,-99.99,,,-99.99,perl,2013-06-25 19:26:00,
2013-06-25 15:31:00,80.1,68.0,29.82,West,273,0.7,4.5,67,-99.99,,,-99.99,perl,2013-06-25 19:31:00,
2013-06-25 15:36:00,80.1,66.2,29.82,West,260,3.1,4.0,63,-99.99,,,-99.99,perl,2013-06-25 19:36:00,
2013-06-25 15:41:00,80.1,66.2,29.82,WNW,294,3.0,3.0,63,-99.99,,,-99.99,perl,2013-06-25 19:41:00,
2013-06-25 15:46:00,79.9,66.2,29.82,WNW,293,4.7,7.6,63,-99.99,,,-99.99,perl,2013-06-25 19:46:00,
2013-06-25 15:51:00,79.7,66.2,29.82,SW,236,3.1,3.6,64,-99.99,,,-99.99,perl,2013-06-25 19:51:00,
2013-06-25 15:56:00,79.7,68.0,29.82,WNW,290,2.4,3.6,68,-99.99,,,-99.99,perl,2013-06-25 19:56:00,
2013-06-25 16:01:00,79.7,66.2,29.82,WNW,284,4.0,4.0,64,-99.99,,,-99.99,perl,2013-06-25 20:01:00,
2013-06-25 16:06:00,79.7,66.2,29.82,WSW,254,3.4,4.9,64,-99.99,,,-99.99,perl,2013-06-25 20:06:00,
2013-06-25 16:11:00,79.7,66.2,29.82,West,281,2.8,4.0,64,-99.99,,,-99.99,perl,2013-06-25 20:11:00,
2013-06-25 16:16:00,79.7,68.0,29.82,WNW,286,3.6,8.7,68,-99.99,,,-99.99,perl,2013-06-25 20:16:00,
2013-06-25 16:21:00,79.5,64.4,29.82,WNW,294,5.7,8.1,60,-99.99,,,-99.99,perl,2013-06-25 20:21:00,
2013-06-25 16:26:00,79.3,64.4,29.82,NW,305,5.4,5.8,61,-99.99,,,-99.99,perl,2013-06-25 20:26:00,
2013-06-25 16:31:00,79.3,66.2,29.82,WNW,291,3.1,3.1,65,-99.99,,,-99.99,perl,2013-06-25 20:31:00,
2013-06-25 16:36:00,79.5,66.2,29.82,West,261,4.6,4.6,64,-99.99,,,-99.99,perl,2013-06-25 20:36:00,
2013-06-25 16:41:00,79.9,68.0,29.82,West,271,5.1,6.3,67,-99.99,,,-99.99,perl,2013-06-25 20:41:00,
2013-06-25 16:46:00,80.4,68.0,29.82,WSW,257,3.9,3.9,66,-99.99,,,-99.99,perl,2013-06-25 20:46:00,
2013-06-25 16:51:00,80.8,66.2,29.82,WNW,295,5.8,5.8,61,-99.99,,,-99.99,perl,2013-06-25 20:51:00,
2013-06-25 16:57:00,81.0,64.4,29.82,West,273,5.7,8.7,57,-99.99,,,-99.99,perl,2013-06-25 20:57:00,
2013-06-25 17:02:00,80.8,64.4,29.79,West,273,7.7,12.8,58,-99.99,,,-99.99,perl,2013-06-25 21:02:00,
2013-06-25 17:07:00,80.4,64.4,29.79,West,269,8.6,8.6,59,-99.99,,,-99.99,perl,2013-06-25 21:07:00,
2013-06-25 17:12:00,80.1,64.4,29.79,West,274,7.7,12.8,59,-99.99,,,-99.99,perl,2013-06-25 21:12:00,
2013-06-25 17:17:00,80.1,64.4,29.79,WNW,295,7.6,8.7,59,-99.99,,,-99.99,perl,2013-06-25 21:17:00,
2013-06-25 17:22:00,80.1,66.2,29.79,WNW,301,5.8,5.8,63,-99.99,,,-99.99,perl,2013-06-25 21:22:00,
2013-06-25 17:27:00,80.4,66.2,29.79,WNW,289,6.0,8.3,62,-99.99,,,-99.99,perl,2013-06-25 21:27:00,
2013-06-25 17:32:00,80.4,64.4,29.79,WNW,296,7.2,12.8,59,-99.99,,,-99.99,perl,2013-06-25 21:32:00,
2013-06-25 17:37:00,80.2,64.4,29.79,West,276,6.4,7.2,59,-99.99,,,-99.99,perl,2013-06-25 21:37:00,
2013-06-25 17:42:00,80.1,64.4,29.79,WNW,291,8.4,8.4,59,-99.99,,,-99.99,perl,2013-06-25 21:42:00,
2013-06-25 17:47:00,80.2,64.4,29.79,NW,307,5.8,5.8,59,-99.99,,,-99.99,perl,2013-06-25 21:47:00,
2013-06-25 17:52:00,80.4,62.6,29.79,WNW,291,6.4,8.7,55,-99.99,,,-99.99,perl,2013-06-25 21:52:00,
2013-06-25 17:57:00,80.2,62.6,29.79,WNW,288,5.7,8.3,55,-99.99,,,-99.99,perl,2013-06-25 21:57:00,
2013-06-25 18:02:00,80.2,62.6,29.79,West,279,4.8,8.3,55,-99.99,,,-99.99,perl,2013-06-25 22:02:00,
2013-06-25 18:07:00,80.1,62.6,29.79,WNW,295,0.0,0.0,55,-99.99,,,-99.99,perl,2013-06-25 22:07:00,
2013-06-25 18:12:00,80.2,62.6,29.79,WNW,284,0.0,0.0,55,-99.99,,,-99.99,perl,2013-06-25 22:12:00,
2013-06-25 18:17:00,79.9,62.6,29.76,West,277,0.0,0.0,56,-99.99,,,-99.99,perl,2013-06-25 22:17:00,
2013-06-25 18:22:00,79.7,62.6,29.76,WNW,300,0.0,0.0,56,-99.99,,,-99.99,perl,2013-06-25 22:22:00,
2013-06-25 18:28:00,79.5,60.8,29.76,WNW,299,0.0,0.0,53,-99.99,,,-99.99,perl,2013-06-25 22:28:00,
2013-06-25 18:33:00,79.3,60.8,29.76,West,271,0.0,0.0,54,-99.99,,,-99.99,perl,2013-06-25 22:33:00,
2013-06-25 18:38:00,79.2,62.6,29.76,WNW,291,0.0,0.0,57,-99.99,,,-99.99,perl,2013-06-25 22:38:00,
2013-06-25 18:44:00,79.2,62.6,29.76,NW,304,0.0,0.0,57,-99.99,,,-99.99,perl,2013-06-25 22:44:00,
2013-06-25 18:49:00,79.2,62.6,29.76,WNW,288,0.0,0.0,57,-99.99,,,-99.99,perl,2013-06-25 22:49:00,
2013-06-25 18:54:00,79.0,62.6,29.76,WSW,244,0.0,0.0,57,-99.99,,,-99.99,perl,2013-06-25 22:54:00,
2013-06-25 18:59:00,79.0,60.8,29.76,West,275,4.1,5.4,54,-99.99,,,-99.99,perl,2013-06-25 22:59:00,
2013-06-25 19:04:00,79.0,59.0,29.76,WNW,296,6.8,8.7,50,-99.99,,,-99.99,perl,2013-06-25 23:04:00,
2013-06-25 19:09:00,79.0,59.0,29.76,West,278,4.1,5.8,50,-99.99,,,-99.99,perl,2013-06-25 23:09:00,
2013-06-25 19:14:00,79.0,59.0,29.76,West,276,4.5,6.3,50,-99.99,,,-99.99,perl,2013-06-25 23:14:00,
2013-06-25 19:19:00,78.8,57.2,29.76,West,280,5.5,8.7,48,-99.99,,,-99.99,perl,2013-06-25 23:19:00,
2013-06-25 19:25:00,78.4,57.2,29.76,WNW,297,6.4,11.0,48,-99.99,,,-99.99,perl,2013-06-25 23:25:00,
2013-06-25 19:30:00,78.3,57.2,29.76,West,274,5.0,6.3,48,-99.99,,,-99.99,perl,2013-06-25 23:30:00,
2013-06-25 19:35:00,78.1,57.2,29.76,SW,226,4.8,5.4,49,-99.99,,,-99.99,perl,2013-06-25 23:35:00,
2013-06-25 19:40:00,77.9,57.2,29.76,West,268,5.3,7.6,49,-99.99,,,-99.99,perl,2013-06-25 23:40:00,
2013-06-25 19:45:00,77.7,57.2,29.76,WSW,247,5.5,8.7,50,-99.99,,,-99.99,perl,2013-06-25 23:45:00,
2013-06-25 19:50:00,77.5,57.2,29.76,West,278,4.1,5.8,50,-99.99,,,-99.99,perl,2013-06-25 23:50:00,
2013-06-25 19:55:00,77.4,57.2,29.76,West,275,4.3,7.2,50,-99.99,,,-99.99,perl,2013-06-25 23:55:00,
2013-06-25 20:00:00,77.2,57.2,29.76,West,265,2.6,3.6,50,-99.99,,,-99.99,perl,2013-06-26 00:00:00,
2013-06-25 20:05:00,77.2,59.0,29.76,West,271,3.7,3.7,54,-99.99,,,-99.99,perl,2013-06-26 00:05:00,
2013-06-25 20:10:00,77.0,59.0,29.76,West,272,4.1,5.8,54,-99.99,,,-99.99,perl,2013-06-26 00:10:00,
2013-06-25 20:16:00,76.8,59.0,29.76,WNW,287,3.6,4.9,55,-99.99,,,-99.99,perl,2013-06-26 00:16:00,
2013-06-25 20:21:00,76.6,59.0,29.76,West,276,4.8,6.3,55,-99.99,,,-99.99,perl,2013-06-26 00:21:00,
2013-06-25 20:26:00,76.5,59.0,29.76,WNW,290,4.3,4.9,55,-99.99,,,-99.99,perl,2013-06-26 00:26:00,
2013-06-25 20:31:00,76.5,59.0,29.76,NW,307,4.4,7.6,55,-99.99,,,-99.99,perl,2013-06-26 00:31:00,
2013-06-25 20:36:00,76.5,59.0,29.76,West,279,3.5,4.0,55,-99.99,,,-99.99,perl,2013-06-26 00:36:00,
2013-06-25 20:41:00,76.3,59.0,29.76,West,268,4.3,5.4,55,-99.99,,,-99.99,perl,2013-06-26 00:41:00,
2013-06-25 20:47:00,76.3,59.0,29.76,West,268,6.3,8.3,55,-99.99,,,-99.99,perl,2013-06-26 00:47:00,
2013-06-25 20:52:00,76.1,59.0,29.76,WNW,299,4.6,8.3,56,-99.99,,,-99.99,perl,2013-06-26 00:52:00,
2013-06-25 20:57:00,76.1,59.0,29.76,West,267,3.4,5.8,56,-99.99,,,-99.99,perl,2013-06-26 00:57:00,
2013-06-25 21:02:00,75.9,57.2,29.76,West,277,2.6,3.6,53,-99.99,,,-99.99,perl,2013-06-26 01:02:00,
2013-06-25 21:07:00,75.9,59.0,29.76,West,274,1.0,4.0,56,-99.99,,,-99.99,perl,2013-06-26 01:07:00,
2013-06-25 21:12:00,75.7,59.0,29.76,WNW,290,3.7,3.7,57,-99.99,,,-99.99,perl,2013-06-26 01:12:00,
2013-06-25 21:17:00,75.6,59.0,29.76,West,272,0.7,6.3,57,-99.99,,,-99.99,perl,2013-06-26 01:17:00,
2013-06-25 21:22:00,75.4,59.0,29.76,WNW,291,3.0,5.4,57,-99.99,,,-99.99,perl,2013-06-26 01:22:00,
2013-06-25 21:27:00,75.4,59.0,29.76,WNW,290,0.6,4.9,57,-99.99,,,-99.99,perl,2013-06-26 01:27:00,
2013-06-25 21:32:00,75.2,59.0,29.79,West,277,2.2,2.7,57,-99.99,,,-99.99,perl,2013-06-26 01:32:00,
2013-06-25 21:37:00,75.0,59.0,29.79,WNW,290,2.1,2.7,58,-99.99,,,-99.99,perl,2013-06-26 01:37:00,
2013-06-25 21:42:00,74.8,59.0,29.79,West,264,1.7,0.0,58,-99.99,,,-99.99,perl,2013-06-26 01:42:00,
2013-06-25 21:47:00,74.8,59.0,29.76,West,280,4.4,9.6,58,-99.99,,,-99.99,perl,2013-06-26 01:47:00,
2013-06-25 21:53:00,74.8,59.0,29.76,WNW,291,3.6,3.6,58,-99.99,,,-99.99,perl,2013-06-26 01:53:00,
2013-06-25 21:58:00,74.8,59.0,29.76,WNW,295,0.4,3.1,58,-99.99,,,-99.99,perl,2013-06-26 01:58:00,
2013-06-25 22:03:00,74.7,59.0,29.79,WNW,282,4.0,5.4,58,-99.99,,,-99.99,perl,2013-06-26 02:03:00,
2013-06-25 22:08:00,74.8,59.0,29.79,West,266,2.7,6.3,58,-99.99,,,-99.99,perl,2013-06-26 02:08:00,
2013-06-25 22:13:00,74.8,59.0,29.79,WNW,292,1.7,0.0,58,-99.99,,,-99.99,perl,2013-06-26 02:13:00,
2013-06-25 22:18:00,74.7,59.0,29.82,WNW,294,0.0,0.0,58,-99.99,,,-99.99,perl,2013-06-26 02:18:00,
2013-06-25 22:23:00,74.7,59.0,29.82,WNW,294,0.0,0.0,58,-99.99,,,-99.99,perl,2013-06-26 02:23:00,
2013-06-25 22:28:00,74.7,59.0,29.82,WNW,291,0.0,0.0,58,-99.99,,,-99.99,perl,2013-06-26 02:28:00,
2013-06-25 22:33:00,74.7,59.0,29.82,WNW,291,0.0,0.0,58,-99.99,,,-99.99,perl,2013-06-26 02:33:00,
2013-06-25 22:38:00,74.5,59.0,29.82,WNW,291,0.0,0.0,59,-99.99,,,-99.99,perl,2013-06-26 02:38:00,
2013-06-25 22:43:00,74.3,59.0,29.82,WNW,291,0.0,0.0,59,-99.99,,,-99.99,perl,2013-06-26 02:43:00,
2013-06-25 22:48:00,74.1,57.2,29.82,NW,326,0.0,0.0,56,-99.99,,,-99.99,perl,2013-06-26 02:48:00,
2013-06-25 22:54:00,73.9,62.6,29.82,WNW,289,0.0,0.0,68,-99.99,,,-99.99,perl,2013-06-26 02:54:00,
2013-06-25 22:59:00,73.4,60.8,29.82,WNW,288,0.0,0.0,65,-99.99,,,-99.99,perl,2013-06-26 02:59:00,
2013-06-25 23:04:00,72.9,62.6,29.79,WNW,288,0.0,0.0,70,-99.99,,,-99.99,perl,2013-06-26 03:04:00,
2013-06-25 23:09:00,72.3,60.8,29.79,WNW,289,0.0,0.0,68,-99.99,,,-99.99,perl,2013-06-26 03:09:00,
2013-06-25 23:15:00,72.0,60.8,29.79,WNW,288,0.0,0.0,68,-99.99,,,-99.99,perl,2013-06-26 03:15:00,
2013-06-25 23:17:00,71.8,60.8,29.79,WNW,289,0.0,0.0,68,-99.99,,,-99.99,perl,2013-06-26 03:17:00,
2013-06-25 23:22:00,71.6,60.8,29.79,WNW,288,0.0,0.0,69,-99.99,,,-99.99,perl,2013-06-26 03:22:00,
2013-06-25 23:27:00,71.2,60.8,29.79,WNW,289,0.0,0.0,70,-99.99,,,-99.99,perl,2013-06-26 03:27:00,
2013-06-25 23:32:00,71.1,62.6,29.79,WNW,289,0.0,0.0,75,-99.99,,,-99.99,perl,2013-06-26 03:32:00,
2013-06-25 23:37:00,70.9,64.4,29.79,WNW,297,0.6,3.1,80,-99.99,,,-99.99,perl,2013-06-26 03:37:00,
2013-06-25 23:42:00,70.9,64.4,29.79,West,265,0.0,3.1,80,-99.99,,,-99.99,perl,2013-06-26 03:42:00,
2013-06-25 23:47:00,70.9,64.4,29.79,West,268,3.1,4.0,80,-99.99,,,-99.99,perl,2013-06-26 03:47:00,
2013-06-25 23:52:00,71.2,64.4,29.79,West,272,4.1,6.3,80,-99.99,,,-99.99,perl,2013-06-26 03:52:00,
2013-06-25 23:57:00,71.4,62.6,29.79,WNW,286,3.7,6.3,74,-99.99,,,-99.99,perl,2013-06-26 03:57:00,